IK5NLA Vaiano IT current weather conditions

sailwx.info

Wind from 271 at 7 knots

Air temperature 12.2° C
Dewpoint 9.4° C

Last reported at 2017-Apr-25 20:01 UTC.
Time now 2017-Apr-25 20:27 UTC

Location: N 43°58' E 011°06'.
View on Google Maps.

See reports from other nearby stations

  
Tides and Currents Weather Stations Pressure Air Temp Water Temp Dewpoint Dewpoint Depression Visibility Wind Speed Wind Dir Waves Ship Positions
date/time (UTC)wind fromknots sea level pressurealtimeterstation pressurevisibilityair tempwater tempwave heightnotes
2017-Apr-25 20:01 271 7 12.2
2017-Apr-25 19:56 227 6 12.2
2017-Apr-25 19:36 310 9 12.2
2017-Apr-25 19:31 259 8 12.2
2017-Apr-25 19:26 242 6 12.2
2017-Apr-25 19:21 264 6 12.2
2017-Apr-25 19:16 267 7 12.2
2017-Apr-25 19:06 217 7 12.2
2017-Apr-25 19:01 240 7 12.2
2017-Apr-25 18:56 249 8 12.2
2017-Apr-25 18:51 241 9 12.2
2017-Apr-25 18:41 274 10 12.8
2017-Apr-25 18:31 293 10 12.8
2017-Apr-25 18:11 249 12 12.8
2017-Apr-25 18:01 259 10 13.3
2017-Apr-25 17:56 250 11 13.3
2017-Apr-25 17:51 265 10 13.3
2017-Apr-25 17:46 256 10 13.3
2017-Apr-25 17:41 275 10 13.3
2017-Apr-25 17:36 237 10 13.3
2017-Apr-25 17:31 232 11 13.3
2017-Apr-25 17:21 259 12 13.9
2017-Apr-25 17:11 259 12 13.9
2017-Apr-25 17:06 251 11 13.9
2017-Apr-25 17:01 243 11 13.9
2017-Apr-25 16:56 257 11 13.9
2017-Apr-25 16:46 251 8 14.4
2017-Apr-25 16:41 232 9 14.4
2017-Apr-25 16:31 263 5 14.4
2017-Apr-25 16:21 208 6 14.4
2017-Apr-25 16:11 184 7 15.0
2017-Apr-25 16:01 184 9 15.0
2017-Apr-25 15:51 225 11 15.0
2017-Apr-25 15:46 233 11 15.0
2017-Apr-25 15:41 252 10 15.0
2017-Apr-25 15:31 244 12 15.0
2017-Apr-25 15:26 233 11 15.0
2017-Apr-25 15:21 213 9 15.0
2017-Apr-25 15:06 219 6 15.0
2017-Apr-25 15:01 219 4 15.0
2017-Apr-25 14:56 236 5 15.0
2017-Apr-25 14:51 224 6 15.0
2017-Apr-25 14:46 211 6 15.0
2017-Apr-25 14:41 219 6 15.0
2017-Apr-25 14:31 225 6 15.0
2017-Apr-25 14:26 252 7 15.0
2017-Apr-25 14:11 188 8 15.6
2017-Apr-25 14:06 236 10 15.6
2017-Apr-25 14:01 360 10 15.6
2017-Apr-25 13:51 207 8 15.6
2017-Apr-25 13:46 194 7 15.0
2017-Apr-25 13:36 360 7 15.6
2017-Apr-25 13:11 226 6 15.0
2017-Apr-25 13:01 239 6 14.4
2017-Apr-25 12:51 255 6 14.4
2017-Apr-25 12:46 204 6 14.4
2017-Apr-25 12:41 226 7 14.4
2017-Apr-25 12:36 207 8 14.4
2017-Apr-25 12:31 194 7 14.4
2017-Apr-25 12:16 166 6 14.4
2017-Apr-25 12:11 188 6 13.9
2017-Apr-25 12:06 210 6 13.9
2017-Apr-25 12:01 126 7 13.9
2017-Apr-25 11:56 222 7 14.4
2017-Apr-25 11:51 225 6 14.4
2017-Apr-25 11:46 167 6 13.9
2017-Apr-25 11:41 203 6 13.9
2017-Apr-25 11:31 252 7 13.3
2017-Apr-25 11:26 219 8 13.3
2017-Apr-25 11:21 360 8 13.3
2017-Apr-25 11:16 224 6 13.3
2017-Apr-25 11:06 229 5 12.8
2017-Apr-25 11:01 227 7 12.8
2017-Apr-25 10:56 360 7 12.8
2017-Apr-25 10:46 209 6 12.8
2017-Apr-25 10:41 186 6 12.8
2017-Apr-25 10:36 200 5 12.2
2017-Apr-25 10:26 209 4 12.2
2017-Apr-25 10:21 250 6 12.2
2017-Apr-25 10:16 255 6 12.2
2017-Apr-25 10:06 183 6 12.2
2017-Apr-25 09:56 210 2 11.7
2017-Apr-25 09:51 187 3 11.7
2017-Apr-25 09:46 180 4 11.1
2017-Apr-25 09:36 222 4 11.1
2017-Apr-25 09:31 230 3 11.1
2017-Apr-25 09:26 223 2 11.1
2017-Apr-25 09:16 242 3 10.6
2017-Apr-25 09:06 227 2 10.6
2017-Apr-25 09:01 198 2 10.6
2017-Apr-25 08:56 182 2 10.6
2017-Apr-25 08:51 213 3 10.6
2017-Apr-25 08:46 180 2 10.0
2017-Apr-25 08:41 199 1 10.0
2017-Apr-25 08:31 259 1 10.0
2017-Apr-25 08:26 166 0 10.0
2017-Apr-25 08:21 249 0 10.0
2017-Apr-25 08:16 253 1 10.0
2017-Apr-25 08:11 178 3 10.0
2017-Apr-25 08:06 205 4 10.0
2017-Apr-25 07:51 242 5 10.0
2017-Apr-25 07:46 243 5 10.0
2017-Apr-25 07:41 230 5 9.4
2017-Apr-25 07:36 218 5 9.4
2017-Apr-25 07:31 263 6 9.4
2017-Apr-25 07:21 210 5 9.4
2017-Apr-25 07:16 217 5 9.4
2017-Apr-25 07:11 260 6 9.4
2017-Apr-25 06:56 236 3 9.4
2017-Apr-25 06:51 236 3 9.4
2017-Apr-25 06:41 237 3 9.4
2017-Apr-25 06:36 211 3 9.4
2017-Apr-25 06:31 211 3 9.4
2017-Apr-25 06:26 218 4 9.4
2017-Apr-25 06:21 202 4 9.4
2017-Apr-25 06:16 214 2 9.4
2017-Apr-25 06:11 252 3 9.4
2017-Apr-25 06:01 236 4 9.4
2017-Apr-25 05:56 227 4 9.4
2017-Apr-25 05:51 227 4 9.4
2017-Apr-25 05:46 273 3 9.4
2017-Apr-25 05:41 227 3 9.4
2017-Apr-25 05:36 244 3 9.4
2017-Apr-25 05:31 209 3 9.4
2017-Apr-25 05:26 264 4 9.4
2017-Apr-25 05:21 227 3 9.4
2017-Apr-25 05:16 244 2 9.4
2017-Apr-25 05:11 191 2 9.4
2017-Apr-25 05:01 204 2 9.4
2017-Apr-25 04:56 256 3 9.4
2017-Apr-25 04:51 263 3 9.4
2017-Apr-25 04:46 236 3 9.4
2017-Apr-25 04:41 260 3 9.4
2017-Apr-25 04:36 244 4 9.4
2017-Apr-25 04:26 253 2 9.4
2017-Apr-25 04:21 218 3 9.4
2017-Apr-25 04:16 245 4 9.4
2017-Apr-25 04:11 232 3 10.0
2017-Apr-25 04:01 264 4 10.0
2017-Apr-25 03:51 268 5 10.0
2017-Apr-25 03:46 232 5 9.4
2017-Apr-25 03:41 267 5 9.4
2017-Apr-25 03:36 263 5 9.4
2017-Apr-25 03:26 240 5 9.4
2017-Apr-25 03:21 259 5 9.4
2017-Apr-25 03:06 218 6 10.0
2017-Apr-25 03:01 360 6 10.0
2017-Apr-25 02:51 360 4 10.0
2017-Apr-25 02:41 221 5 10.0
2017-Apr-25 02:36 226 4 10.0
2017-Apr-25 02:21 250 5 10.0
2017-Apr-25 02:16 229 5 10.0
2017-Apr-25 02:11 233 5 10.0
2017-Apr-25 02:06 238 5 10.0
2017-Apr-25 01:56 236 3 9.4
2017-Apr-25 01:46 213 5 9.4
2017-Apr-25 01:36 222 5 9.4
2017-Apr-25 01:31 214 5 9.4
2017-Apr-25 01:21 194 3 9.4
2017-Apr-25 01:11 186 6 10.0
2017-Apr-25 01:01 206 6 10.0
2017-Apr-25 00:46 206 5 10.0
2017-Apr-25 00:41 200 6 10.0
2017-Apr-25 00:31 219 5 10.0
2017-Apr-25 00:26 188 4 10.6
2017-Apr-25 00:16 236 3 10.0
2017-Apr-25 00:11 236 3 10.0
2017-Apr-24 23:56 232 3 10.6
2017-Apr-24 23:51 239 4 10.6
2017-Apr-24 23:46 244 4 10.6
2017-Apr-24 23:41 252 3 10.6
2017-Apr-24 23:36 247 4 10.6
2017-Apr-24 23:31 213 5 10.6
2017-Apr-24 23:26 235 5 10.6
2017-Apr-24 23:21 229 3 10.6
2017-Apr-24 23:16 208 1 10.6
2017-Apr-24 22:56 252 4 10.6
2017-Apr-24 22:51 274 2 10.6
2017-Apr-24 22:46 257 1 10.6
2017-Apr-24 22:41 259 0 10.6
2017-Apr-24 22:36 236 1 10.6
2017-Apr-24 22:26 268 2 10.6
2017-Apr-24 22:11 231 2 11.1
2017-Apr-24 21:46 264 6 11.1
2017-Apr-24 21:41 261 5 11.1
2017-Apr-24 21:36 283 4 11.1
2017-Apr-24 21:31 274 4 11.7
2017-Apr-24 21:21 246 5 11.7
2017-Apr-24 21:16 267 6 11.7
2017-Apr-24 21:11 268 6 11.7
2017-Apr-24 21:06 242 4 11.7
2017-Apr-24 21:01 277 5 11.7
2017-Apr-24 20:51 292 6 11.7
2017-Apr-24 20:31 267 6 11.7
2017-Apr-24 20:26 249 6 11.7
2017-Apr-24 20:16 295 8 11.7
2017-Apr-24 20:11 259 7 12.2
2017-Apr-24 20:06 250 9 12.2
2017-Apr-24 20:01 241 10 12.2
2017-Apr-24 19:16 267 6 12.2
2017-Apr-24 19:11 252 6 12.8
2017-Apr-24 18:51 267 9 12.8
2017-Apr-24 18:41 261 8 12.8
2017-Apr-24 18:31 275 8 12.8
2017-Apr-24 18:26 266 9 12.8
2017-Apr-24 18:21 268 9 12.8
2017-Apr-24 18:11 271 11 13.3
2017-Apr-24 18:06 263 10 13.3
2017-Apr-24 18:01 273 10 13.3
2017-Apr-24 17:56 271 10 13.3
2017-Apr-24 17:51 265 10 13.3
2017-Apr-24 17:31 267 9 13.9
2017-Apr-24 17:21 268 8 13.9
2017-Apr-24 17:16 290 8 13.9
2017-Apr-24 17:11 259 7 14.4
2017-Apr-24 17:06 267 8 14.4
2017-Apr-24 17:01 248 7 14.4
2017-Apr-24 16:41 279 5 15.0
2017-Apr-24 16:36 227 4 15.0
2017-Apr-24 16:31 272 4 15.6
2017-Apr-24 16:21 259 4 15.6
2017-Apr-24 16:11 244 5 15.6
2017-Apr-24 16:06 213 2 16.1
2017-Apr-24 16:01 207 2 16.1
2017-Apr-24 15:51 208 1 16.1
2017-Apr-24 15:31 240 3 15.6
2017-Apr-24 15:26 238 3 15.6
2017-Apr-24 15:16 225 6 15.6
2017-Apr-24 15:11 239 6 15.0
2017-Apr-24 15:01 263 6 15.0
2017-Apr-24 14:51 234 6 15.6
2017-Apr-24 14:46 244 5 15.6
2017-Apr-24 14:41 217 4 15.6
2017-Apr-24 14:31 271 4 15.0
2017-Apr-24 14:21 213 4 15.0
2017-Apr-24 14:16 232 3 15.6
2017-Apr-24 14:11 260 4 15.6
2017-Apr-24 14:06 238 4 15.6
2017-Apr-24 14:01 238 4 15.6
2017-Apr-24 13:56 194 4 15.6
2017-Apr-24 13:51 195 5 15.6
2017-Apr-24 13:46 360 4 16.1
2017-Apr-24 13:36 237 2 16.7
2017-Apr-24 13:31 263 4 16.1
2017-Apr-24 13:21 187 4 15.6
2017-Apr-24 13:16 161 4 15.6
2017-Apr-24 13:11 360 4 15.6
2017-Apr-24 13:06 225 4 15.6
2017-Apr-24 12:56 215 4 16.1
2017-Apr-24 12:31 242 4 15.6
2017-Apr-24 12:21 233 5 15.0
2017-Apr-24 12:11 198 4 15.0
2017-Apr-24 12:06 186 5 15.0
2017-Apr-24 12:01 186 6 15.0
2017-Apr-24 11:56 213 5 15.0
2017-Apr-24 11:51 232 3 15.0
2017-Apr-24 11:46 167 3 15.6
2017-Apr-24 11:41 178 3 15.0
2017-Apr-24 11:36 226 4 15.0
2017-Apr-24 11:31 244 5 15.0
2017-Apr-24 11:26 245 4 15.0
2017-Apr-24 11:21 185 3 14.4
2017-Apr-24 11:11 257 5 14.4
2017-Apr-24 11:01 203 3 14.4
2017-Apr-24 10:56 226 3 15.0
2017-Apr-24 10:51 264 3 14.4
2017-Apr-24 10:46 191 4 13.9
2017-Apr-24 10:41 225 5 13.3
2017-Apr-24 10:26 242 4 13.3
2017-Apr-24 10:11 191 4 13.3
2017-Apr-24 10:01 186 4 13.3
2017-Apr-24 09:51 218 4 12.8
2017-Apr-24 09:46 213 3 12.8
2017-Apr-24 09:41 225 3 13.3
2017-Apr-24 09:36 207 4 12.8
2017-Apr-24 09:21 224 3 11.7
2017-Apr-24 09:16 254 4 11.7
2017-Apr-24 09:11 219 4 11.7
2017-Apr-24 09:06 233 3 11.7
2017-Apr-24 09:01 268 3 11.7
2017-Apr-24 08:56 200 3 11.7
2017-Apr-24 08:51 231 2 12.2
2017-Apr-24 08:46 360 0 12.8
2017-Apr-24 08:36 268 1 12.2
2017-Apr-24 08:26 229 0 12.2
2017-Apr-24 08:16 203 1 11.1
2017-Apr-24 07:51 198 0 10.6
2017-Apr-24 07:46 165 0 10.6
2017-Apr-24 07:41 171 0 10.6
2017-Apr-24 07:36 166 10.0
2017-Apr-24 07:26 198 0 10.0
2017-Apr-24 07:16 156 0 10.0
2017-Apr-24 07:06 153 10.0
2017-Apr-24 06:56 163 9.4
2017-Apr-24 06:51 157 9.4
2017-Apr-24 06:41 171 0 9.4
2017-Apr-24 06:31 173 0 9.4
2017-Apr-24 06:21 184 9.4
2017-Apr-24 06:11 201 8.9
2017-Apr-24 06:01 219 9.4
2017-Apr-24 05:56 219 9.4
2017-Apr-24 05:51 219 8.9
2017-Apr-24 05:46 219 8.9
2017-Apr-24 05:41 219 8.9
2017-Apr-24 05:36 219 8.9
2017-Apr-24 05:31 219 8.9
2017-Apr-24 05:26 219 8.9
2017-Apr-24 05:21 219 8.9
2017-Apr-24 05:16 219 8.9
2017-Apr-24 05:11 232 8.9
2017-Apr-24 05:01 226 0 8.9
2017-Apr-24 04:56 256 8.9
2017-Apr-24 04:51 259 0 8.9
2017-Apr-24 04:46 267 8.9
2017-Apr-24 04:41 259 8.9
2017-Apr-24 04:36 271 8.9
2017-Apr-24 04:31 269 8.3
2017-Apr-24 04:21 270 8.3
2017-Apr-24 04:11 277 8.3
2017-Apr-24 04:01 278 8.3
2017-Apr-24 03:51 275 8.9
2017-Apr-24 03:46 271 8.9
2017-Apr-24 03:41 271 8.9
2017-Apr-24 03:36 269 8.3
2017-Apr-24 03:11 264 8.9
2017-Apr-24 03:01 265 8.9
2017-Apr-24 02:56 264 8.9
2017-Apr-24 02:41 264 8.9
2017-Apr-24 02:36 264 8.9
2017-Apr-24 02:31 263 8.9
2017-Apr-24 02:26 263 8.9
2017-Apr-24 02:21 263 8.9
2017-Apr-24 02:11 262 8.9
2017-Apr-24 01:56 259 8.9
2017-Apr-24 01:51 259 8.9
2017-Apr-24 01:36 256 8.9
2017-Apr-24 01:31 256 9.4
2017-Apr-24 01:21 257 9.4
2017-Apr-24 01:11 268 8.9
2017-Apr-24 01:06 267 8.9
2017-Apr-24 00:56 288 8.9
2017-Apr-24 00:46 323 8.9
2017-Apr-24 00:16 322 8.9
2017-Apr-24 00:11 337 8.9
2017-Apr-24 00:06 336 8.9
2017-Apr-24 00:01 337 8.9
2017-Apr-23 23:56 329 8.9
2017-Apr-23 23:41 333 8.9
2017-Apr-23 23:11 321 9.4
2017-Apr-23 23:01 321 8.9
2017-Apr-23 22:51 261 9.4
2017-Apr-23 22:46 253 9.4
2017-Apr-23 22:41 252 9.4
2017-Apr-23 22:31 252 9.4
2017-Apr-23 22:21 252 10.0
2017-Apr-23 22:16 250 10.0
2017-Apr-23 22:11 271 10.0
2017-Apr-23 21:46 273 10.0
2017-Apr-23 21:36 289 10.0
2017-Apr-23 21:31 289 10.0
2017-Apr-23 21:26 288 10.0
2017-Apr-23 21:16 288 10.0
2017-Apr-23 21:06 267 1 10.0
2017-Apr-23 21:01 277 1 10.0
2017-Apr-23 20:56 277 0 10.0
2017-Apr-23 20:51 277 0 10.0
2017-Apr-23 20:36 281 0 10.6
2017-Apr-23 20:21 304 0 10.6
2017-Apr-23 20:06 277 0 10.6